{"data":{"norad_id":63590,"epoch":"2026-05-24T23:30:18.817344Z","epoch_age_seconds":72840,"freshness":"FRESH","line1":"1 63590U 25076X   26144.97938446  .00011868  00000+0  43970-3 0  9999","line2":"2 63590  42.9963 251.2046 0002201 265.0372  95.0228 15.27609858 63497","mean_motion":15.27609858,"eccentricity":0.0002201,"inclination_deg":42.9963,"raan_deg":251.2046,"arg_perigee_deg":265.0372,"mean_anomaly_deg":95.0228,"bstar":0.0004397,"rev_number":6349,"period_min":94.26490621665,"perigee_km":481.44956452065,"apogee_km":484.46981928442,"semimajor_km":6861.0966919025,"source":"CELESTRAK","updated_at":"2026-05-25T13:38:20.050312Z"}}